User: anonymous   Login
Location: Unspecified
(0.0000°N, 0.0000°E)
Time: 20:51:15
(UTC+00:00)
Language:

DSP F16 - Orbit

View from above orbital plane
View from above orbital plane
View from above satellite
View from above satellite

Ground track
Ground track

The orbit data is extracted from the following two-line orbital elements,

1 21805U 91080B   18137.37220270 0.00000000  00000-0  00000-0 0    00
2 21805  15.1481   9.6826 0005399 341.0692  18.9228  0.99203152    01
Epoch (UTC): 17 May 2018 08:55:58
Eccentricity: 0.0005399
inclination: 15.1481°
perigee height: 36065 km
apogee height: 36111 km
right ascension of ascending node: 9.6826°
argument of perigee: 341.0692°
revolutions per day: 0.99203152
mean anomaly at epoch: 18.9228°
orbit number at epoch: 0

The dashed part of the orbit path shows where the satellite is in the earth's shadow,  

DLR